sat.trackr.live / text

‹ back to catalog

STARLINK-31025

NORAD 58634 · 2023-203S

PAYLOAD ACTIVE UNKNOWN

§ Identity

Operator
Country
US
Launch date
2023-12-23
Launch site
AFETR
Launch vehicle
Mass (kg)
RCS (m²)

Purposes: comms

External: N2YO · Heavens-Above · Gunter

§ Orbital elements

Epoch: 2026-05-24T20:32:25.732896Z

Period
94.27 min
Inclination
43.0028°
Eccentricity
0.0000889
Mean motion
15.27592100 rev/d
Perigee alt
482.4 km
Apogee alt
483.6 km
Semi-major
6,861.1 km
B*
-2.4818e-5
RAAN
356.5605°
Arg perigee
246.2040°
Mean anomaly
113.8719°
Rev number
13,644

§ Raw data

STARLINK-310251 58634U 23203S   26144.85585339 -.00000945  00000+0 -24818-4 0  99952 58634  43.0028 356.5605 0000889 246.2040 113.8719 15.27592100136448

JSON: /api/v1/satellites/58634 · /tle

For live sub-satellite position, see the globe view (requires WebGL).

§ Visibility from observer

Set your observer location to see the next 7 days of passes ≥ 10°. The values pass through the URL so the page stays shareable.

No JS? Fill the form by hand. The geolocation button needs JavaScript.